Location: Aix-en-Ergny
(50.5839°N, 1.9996°E)
Time: 20:26:16
(UTC+00:00)

Cosmos 389 Rocket - Pass Details

Date: 23 October 2019
Orbit: 445 x 477 km, 81.1° (Epoch: 18 November)

Event Time Altitude Azimuth Distance (km) Brightness Sun altitude
Exits shadow 03:48:54 25° 26° (NNE) 968 4.4 -25.6°
Drops below altitude 10° 03:50:29 10° 19° (NNE) 1,598 5.5 -25.4°
Sets 03:52:36 0° 16° (NNE) 2,481 6.5 -25.1°
